Overview Statistics Trail Chart Weather Telemetry Raw packets
 

This is the latest recevied weather packets stored in our database for station/object IZ8QAD-4. If no packets are shown the sender has not sent any weather packets the latest 10 day(s).

<< 2 3 4 5 6 7 8 >>
Time Temp. Humidity Pressure Rain* Wind** Luminosity Snow
1788446370 32.22° C 26% 968.3 hPa - - - -
1788444570 32.78° C 24% 968.3 hPa - - - -
1788442770 32.78° C 25% 968.4 hPa - - - -
1788440970 32.78° C 25% 968.5 hPa - - - -
1788439170 32.22° C 24% 968.6 hPa - - - -
1788437369 32.22° C 24% 968.9 hPa - - - -
1788435568 32.22° C 26% 968.9 hPa - - - -
1788433768 32.22° C 26% 969.2 hPa - - - -
1788431968 31.67° C 27% 969.4 hPa - - - -
1788430170 31.11° C 29% 969.7 hPa - - - -
1788428370 31.11° C 29% 970.1 hPa - - - -
1788426570 31.67° C 32% 970.4 hPa - - - -
1788424770 31.67° C 33% 970.5 hPa - - - -
1788422970 31.67° C 33% 970.4 hPa - - - -
1788421169 31.67° C 32% 970.2 hPa - - - -
1788419369 31.67° C 31% 970.3 hPa - - - -
1788417569 31.67° C 31% 970.4 hPa - - - -
1788415769 32.22° C 29% 970.3 hPa - - - -
1788413968 32.22° C 29% 970.3 hPa - - - -
1788412167 32.22° C 29% 970.1 hPa - - - -
1788410367 32.78° C 29% 970.1 hPa - - - -
1788408570 32.78° C 29% 970 hPa - - - -
1788406770 33.33° C 29% 969.9 hPa - - - -
1788404969 33.33° C 31% 970.1 hPa - - - -
1788403169 33.33° C 31% 970.1 hPa - - - -

* Rain since midnight (hover to see other rain measurements)
** Current wind speed in m/s (hover to see current wind gust speed)